TimeEST,TemperatureF,Dew PointF,Humidity,Sea Level PressureIn,VisibilityMPH,Wind Direction,Wind SpeedMPH,Gust SpeedMPH,PrecipitationIn,Events,Conditions,WindDirDegrees,DateUTC
12:15 AM,30.2,19.4,64,29.57,10.0,SW,5.8,17.3,N/A,,Clear,230,2014-01-20 05:15:00
12:35 AM,30.2,19.4,64,29.57,10.0,SW,8.1,-,N/A,,Clear,230,2014-01-20 05:35:00
12:55 AM,30.2,19.4,64,29.58,10.0,SW,6.9,-,N/A,,Clear,220,2014-01-20 05:55:00
1:15 AM,30.2,17.6,60,29.57,10.0,SW,6.9,17.3,N/A,,Clear,220,2014-01-20 06:15:00
1:35 AM,30.2,17.6,60,29.58,10.0,SW,8.1,-,N/A,,Clear,230,2014-01-20 06:35:00
1:55 AM,30.2,17.6,60,29.58,10.0,SW,5.8,-,N/A,,Clear,220,2014-01-20 06:55:00
2:15 AM,30.2,17.6,60,29.59,10.0,SSW,5.8,-,N/A,,Clear,210,2014-01-20 07:15:00
2:35 AM,30.2,19.4,64,29.58,10.0,SSW,6.9,-,N/A,,Clear,200,2014-01-20 07:35:00
2:55 AM,30.2,19.4,64,29.58,10.0,SSW,5.8,-,N/A,,Clear,200,2014-01-20 07:55:00
3:15 AM,30.2,19.4,64,29.57,10.0,SSW,3.5,-,N/A,,Clear,200,2014-01-20 08:15:00
3:35 AM,30.2,19.4,64,29.59,10.0,SW,5.8,-,N/A,,Clear,220,2014-01-20 08:35:00
3:55 AM,30.2,19.4,64,29.59,10.0,SSW,6.9,-,N/A,,Clear,200,2014-01-20 08:55:00
4:15 AM,32.0,19.4,60,29.57,10.0,SSW,4.6,-,N/A,,Clear,210,2014-01-20 09:15:00
4:35 AM,32.0,19.4,60,29.58,10.0,SW,5.8,-,N/A,,Clear,220,2014-01-20 09:35:00
4:55 AM,32.0,19.4,60,29.59,10.0,SSW,6.9,-,N/A,,Clear,210,2014-01-20 09:55:00
5:15 AM,32.0,19.4,60,29.59,10.0,SW,6.9,-,N/A,,Clear,230,2014-01-20 10:15:00
5:35 AM,32.0,19.4,60,29.58,10.0,SW,8.1,-,N/A,,Clear,220,2014-01-20 10:35:00
5:55 AM,32.0,19.4,60,29.57,10.0,SW,5.8,-,N/A,,Clear,220,2014-01-20 10:55:00
6:15 AM,32.0,19.4,60,29.57,10.0,SW,5.8,-,N/A,,Clear,230,2014-01-20 11:15:00
6:35 AM,32.0,19.4,60,29.57,10.0,SSW,5.8,-,N/A,,Clear,210,2014-01-20 11:35:00
6:55 AM,32.0,17.6,55,29.57,10.0,SSW,4.6,-,N/A,,Scattered Clouds,210,2014-01-20 11:55:00
7:15 AM,32.0,17.6,55,29.57,10.0,SW,3.5,-,N/A,,Partly Cloudy,220,2014-01-20 12:15:00
7:35 AM,32.0,19.4,60,29.58,10.0,SW,4.6,-,N/A,,Clear,220,2014-01-20 12:35:00
7:55 AM,33.8,19.4,56,29.58,10.0,SSW,5.8,-,N/A,,Clear,210,2014-01-20 12:55:00
8:15 AM,33.8,19.4,56,29.58,10.0,SW,6.9,-,N/A,,Clear,230,2014-01-20 13:15:00
8:35 AM,33.8,19.4,56,29.59,10.0,SW,5.8,-,N/A,,Clear,230,2014-01-20 13:35:00
8:55 AM,35.6,19.4,52,29.59,10.0,SW,4.6,-,N/A,,Clear,220,2014-01-20 13:55:00
9:15 AM,37.4,21.2,52,29.59,10.0,SW,6.9,16.1,N/A,,Scattered Clouds,220,2014-01-20 14:15:00
9:35 AM,37.4,21.2,52,29.60,10.0,WSW,5.8,-,N/A,,Overcast,240,2014-01-20 14:35:00
9:55 AM,37.4,19.4,48,29.60,10.0,WSW,11.5,19.6,N/A,,Overcast,240,2014-01-20 14:55:00
10:15 AM,37.4,21.2,52,29.60,10.0,WSW,9.2,18.4,N/A,,Overcast,250,2014-01-20 15:15:00
10:35 AM,37.4,21.2,52,29.59,10.0,WSW,11.5,20.7,N/A,,Mostly Cloudy,240,2014-01-20 15:35:00
10:55 AM,37.4,21.2,52,29.59,10.0,WSW,9.2,16.1,N/A,,Partly Cloudy,250,2014-01-20 15:55:00
11:15 AM,37.4,21.2,52,29.57,10.0,WSW,9.2,18.4,N/A,,Scattered Clouds,250,2014-01-20 16:15:00
11:35 AM,39.2,21.2,49,29.56,10.0,WSW,6.9,19.6,N/A,,Clear,250,2014-01-20 16:35:00
11:55 AM,39.2,21.2,49,29.55,10.0,WSW,11.5,17.3,N/A,,Partly Cloudy,250,2014-01-20 16:55:00
12:15 PM,39.2,23.0,52,29.54,10.0,WSW,8.1,17.3,N/A,,Scattered Clouds,240,2014-01-20 17:15:00
12:35 PM,39.2,21.2,49,29.53,10.0,SW,9.2,21.9,N/A,,Scattered Clouds,230,2014-01-20 17:35:00
12:55 PM,39.2,23.0,52,29.53,10.0,West,11.5,21.9,N/A,,Partly Cloudy,260,2014-01-20 17:55:00
1:15 PM,39.2,23.0,52,29.52,10.0,WSW,13.8,23.0,N/A,,Partly Cloudy,250,2014-01-20 18:15:00
1:35 PM,41.0,23.0,49,29.51,10.0,WSW,8.1,20.7,N/A,,Clear,250,2014-01-20 18:35:00
1:55 PM,42.8,24.8,49,29.52,10.0,West,15.0,-,N/A,,Scattered Clouds,270,2014-01-20 18:55:00
2:15 PM,41.0,23.0,49,29.52,10.0,West,12.7,20.7,N/A,,Mostly Cloudy,260,2014-01-20 19:15:00
2:35 PM,41.0,23.0,49,29.52,10.0,West,11.5,21.9,N/A,,Overcast,260,2014-01-20 19:35:00
2:55 PM,41.0,23.0,49,29.52,10.0,WSW,9.2,18.4,N/A,,Mostly Cloudy,250,2014-01-20 19:55:00
3:15 PM,39.2,23.0,52,29.54,10.0,WSW,9.2,19.6,N/A,,Mostly Cloudy,250,2014-01-20 20:15:00
3:35 PM,39.2,21.2,49,29.54,10.0,West,10.4,20.7,N/A,,Overcast,260,2014-01-20 20:35:00
3:55 PM,39.2,23.0,52,29.55,10.0,West,12.7,16.1,N/A,,Mostly Cloudy,270,2014-01-20 20:55:00
4:15 PM,39.2,21.2,49,29.56,10.0,WSW,3.5,-,N/A,,Partly Cloudy,240,2014-01-20 21:15:00
4:35 PM,39.2,21.2,49,29.57,10.0,WSW,8.1,16.1,N/A,,Clear,250,2014-01-20 21:35:00
4:55 PM,37.4,21.2,52,29.58,10.0,WSW,6.9,-,N/A,,Clear,250,2014-01-20 21:55:00
5:15 PM,37.4,21.2,52,29.60,10.0,West,11.5,-,N/A,,Clear,260,2014-01-20 22:15:00
5:35 PM,37.4,21.2,52,29.61,10.0,West,11.5,20.7,N/A,,Clear,260,2014-01-20 22:35:00
5:55 PM,37.4,21.2,52,29.62,10.0,West,9.2,16.1,N/A,,Clear,280,2014-01-20 22:55:00
6:15 PM,37.4,21.2,52,29.63,10.0,WNW,10.4,-,N/A,,Clear,290,2014-01-20 23:15:00
6:35 PM,35.6,21.2,56,29.65,10.0,WNW,8.1,-,N/A,,Clear,300,2014-01-20 23:35:00
6:55 PM,35.6,21.2,56,29.66,10.0,WNW,16.1,23.0,N/A,,Clear,300,2014-01-20 23:55:00
7:15 PM,35.6,24.8,65,29.69,10.0,WNW,9.2,25.3,N/A,,Scattered Clouds,300,2014-01-21 00:15:00
7:35 PM,33.8,24.8,70,29.70,10.0,WNW,13.8,21.9,N/A,,Scattered Clouds,300,2014-01-21 00:35:00
7:55 PM,33.8,21.2,60,29.72,10.0,WNW,17.3,23.0,N/A,,Mostly Cloudy,300,2014-01-21 00:55:00
8:15 PM,33.8,19.4,56,29.72,10.0,WNW,15.0,24.2,N/A,,Overcast,290,2014-01-21 01:15:00
8:35 PM,33.8,17.6,52,29.73,10.0,WNW,18.4,27.6,N/A,,Mostly Cloudy,290,2014-01-21 01:35:00
8:55 PM,32.0,17.6,55,29.74,10.0,WNW,17.3,24.2,N/A,,Partly Cloudy,300,2014-01-21 01:55:00
9:15 PM,32.0,15.8,51,29.75,10.0,WNW,16.1,28.8,N/A,,Clear,290,2014-01-21 02:15:00
9:35 PM,30.2,15.8,55,29.76,10.0,WNW,9.2,19.6,N/A,,Clear,290,2014-01-21 02:35:00
9:55 PM,30.2,12.2,47,29.78,10.0,WNW,13.8,23.0,N/A,,Clear,300,2014-01-21 02:55:00
10:15 PM,28.4,10.4,47,29.79,10.0,WNW,10.4,20.7,N/A,,Clear,290,2014-01-21 03:15:00
10:35 PM,28.4,10.4,47,29.82,10.0,West,19.6,26.5,N/A,,Clear,280,2014-01-21 03:35:00
10:55 PM,26.6,8.6,47,29.83,10.0,West,10.4,19.6,N/A,,Clear,280,2014-01-21 03:55:00
11:15 PM,26.6,8.6,47,29.84,10.0,West,4.6,20.7,N/A,,Clear,280,2014-01-21 04:15:00
11:35 PM,26.6,6.8,43,29.84,10.0,NW,12.7,19.6,N/A,,Clear,310,2014-01-21 04:35:00
11:55 PM,24.8,3.2,40,29.85,10.0,WNW,10.4,24.2,N/A,,Clear,290,2014-01-21 04:55:00